TimeCDT,TemperatureF,Dew PointF,Humidity,Sea Level PressureIn,VisibilityMPH,Wind Direction,Wind SpeedMPH,Gust SpeedMPH,PrecipitationIn,Events,Conditions,WindDirDegrees,DateUTC
12:52 AM,52.0,46.0,80,30.04,10.0,SW,15.0,-,0.01,Rain,Light Rain,230,2013-03-30 05:52:00
1:52 AM,48.9,46.0,90,30.05,6.0,SW,5.8,-,0.07,Rain,Rain,220,2013-03-30 06:52:00
2:52 AM,48.0,45.0,89,30.03,5.0,ESE,9.2,-,0.25,Rain,Rain,110,2013-03-30 07:52:00
3:26 AM,46.4,44.6,93,30.00,10.0,ESE,10.4,-,0.01,,Overcast,110,2013-03-30 08:26:00
3:52 AM,46.0,44.1,93,29.99,10.0,ESE,10.4,-,0.01,,Overcast,120,2013-03-30 08:52:00
4:30 AM,46.4,42.8,87,29.98,10.0,SE,10.4,-,N/A,,Overcast,130,2013-03-30 09:30:00
4:52 AM,46.0,43.0,89,29.97,10.0,SE,8.1,-,N/A,,Overcast,130,2013-03-30 09:52:00
5:52 AM,44.1,42.1,93,29.97,10.0,SE,5.8,-,N/A,,Mostly Cloudy,130,2013-03-30 10:52:00
6:15 AM,44.6,42.8,93,29.96,9.0,SE,5.8,-,N/A,,Overcast,130,2013-03-30 11:15:00
6:52 AM,44.1,43.0,96,29.97,8.0,ESE,3.5,-,N/A,,Overcast,120,2013-03-30 11:52:00
7:25 AM,44.6,42.8,93,29.96,8.0,SE,4.6,-,N/A,,Overcast,140,2013-03-30 12:25:00
7:44 AM,44.6,42.8,93,29.96,8.0,ESE,8.1,-,N/A,,Overcast,120,2013-03-30 12:44:00
7:52 AM,45.0,43.0,93,29.97,10.0,SSE,10.4,-,N/A,,Overcast,160,2013-03-30 12:52:00
8:52 AM,46.0,44.1,93,29.97,8.0,SE,3.5,-,N/A,,Mostly Cloudy,140,2013-03-30 13:52:00
9:52 AM,48.9,46.0,90,29.96,7.0,West,3.5,-,N/A,,Scattered Clouds,270,2013-03-30 14:52:00
10:03 AM,50.0,46.4,87,29.94,7.0,West,5.8,-,N/A,,Mostly Cloudy,280,2013-03-30 15:03:00
10:13 AM,50.0,46.4,87,29.94,6.0,West,8.1,-,N/A,,Mostly Cloudy,280,2013-03-30 15:13:00
10:49 AM,51.8,46.4,82,29.95,8.0,NW,13.8,18.4,N/A,,Overcast,310,2013-03-30 15:49:00
10:52 AM,51.1,46.9,86,29.96,8.0,NW,12.7,18.4,N/A,,Overcast,320,2013-03-30 15:52:00
11:52 AM,51.1,46.0,83,29.97,9.0,NNW,13.8,-,N/A,,Overcast,330,2013-03-30 16:52:00
12:22 PM,53.6,46.4,77,29.96,10.0,NW,13.8,-,N/A,,Scattered Clouds,320,2013-03-30 17:22:00
12:52 PM,55.0,46.9,74,29.96,10.0,NW,9.2,-,N/A,,Clear,320,2013-03-30 17:52:00
1:52 PM,57.9,46.9,67,29.95,10.0,NW,11.5,-,N/A,,Clear,310,2013-03-30 18:52:00
2:52 PM,60.1,45.0,57,29.94,10.0,NNW,15.0,19.6,N/A,,Clear,330,2013-03-30 19:52:00
3:52 PM,61.0,41.0,48,29.93,10.0,NW,15.0,-,N/A,,Clear,320,2013-03-30 20:52:00
4:52 PM,62.1,41.0,46,29.92,10.0,NW,12.7,-,N/A,,Clear,320,2013-03-30 21:52:00
5:52 PM,62.1,37.9,41,29.91,10.0,NNW,16.1,-,N/A,,Clear,340,2013-03-30 22:52:00
6:36 PM,57.2,41.0,55,29.93,10.0,NW,23.0,36.8,0.00,Rain-Thunderstorm,Light Thunderstorms and Rain,310,2013-03-30 23:36:00
6:52 PM,51.1,41.0,68,29.94,10.0,West,12.7,21.9,0.00,Rain,Light Rain,270,2013-03-30 23:52:00
7:52 PM,50.0,42.1,74,29.94,10.0,WNW,4.6,-,0.00,,Mostly Cloudy,290,2013-03-31 00:52:00
8:52 PM,46.9,41.0,80,29.95,10.0,West,5.8,-,N/A,,Clear,280,2013-03-31 01:52:00
9:52 PM,46.9,39.9,77,29.96,10.0,NW,6.9,-,N/A,,Mostly Cloudy,310,2013-03-31 02:52:00
10:52 PM,46.9,39.9,77,29.97,10.0,NW,10.4,-,N/A,,Clear,320,2013-03-31 03:52:00
11:52 PM,44.1,39.0,82,29.97,10.0,NNW,6.9,-,N/A,,Clear,330,2013-03-31 04:52:00